This is the latest recevied weather packets stored in our database for station/object ZL1CTS-13. If no packets are shown the sender has not sent any weather packets the latest 10 day(s).
| Time | Temp. | Humidity | Pressure | Rain* | Wind** | Luminosity | Snow |
|---|---|---|---|---|---|---|---|
| 1777631404 | 10.56° C | 96% | 1026.3 hPa | 0 mm | - | - | - |
| 1777630804 | 10.56° C | 95% | 1026.2 hPa | 0 mm | - | - | - |
| 1777630204 | 10° C | 95% | 1026.3 hPa | 0 mm | - | - | - |
| 1777629607 | 10.56° C | 94% | 1026.4 hPa | 0 mm | - | - | - |
| 1777629006 | 10.56° C | 94% | 1026.4 hPa | 0 mm | - | - | - |
| 1777628406 | 11.11° C | 93% | 1026.2 hPa | 0 mm | - | - | - |
| 1777627806 | 11.11° C | 92% | 1026.2 hPa | 0 mm | - | - | - |
| 1777627205 | 11.11° C | 92% | 1026.2 hPa | 0 mm | - | - | - |
| 1777626604 | 11.11° C | 91% | 1026.1 hPa | 0 mm | - | - | - |
| 1777626003 | 11.11° C | 91% | 1026.1 hPa | 0 mm | - | - | - |
| 1777625405 | 10.56° C | 91% | 1026.1 hPa | 0 mm | - | - | - |
| 1777624804 | 10.56° C | 90% | 1026 hPa | 0 mm | - | - | - |
| 1777624204 | 10.56° C | 89% | 1026 hPa | 0 mm | - | - | - |
| 1777623604 | 11.11° C | 89% | 1025.9 hPa | 0 mm | - | - | - |
| 1777623004 | 11.67° C | 89% | 1025.9 hPa | 0 mm | - | - | - |
| 1777622404 | 11.11° C | 89% | 1025.8 hPa | 0 mm | - | - | - |
| 1777621804 | 10.56° C | 87% | 1025.8 hPa | 0 mm | - | - | - |
| 1777621204 | 11.11° C | 85% | 1025.8 hPa | 0 mm | - | - | - |
| 1777620605 | 11.67° C | 85% | 1025.8 hPa | 0 mm | - | - | - |
| 1777620004 | 11.11° C | 85% | 1025.9 hPa | 0 mm | - | - | - |
| 1777619404 | 11.11° C | 83% | 1025.8 hPa | 0 mm | - | - | - |
| 1777618803 | 11.67° C | 82% | 1025.9 hPa | 0 mm | - | - | - |
| 1777618204 | 11.67° C | 81% | 1026 hPa | 0 mm | - | - | - |
| 1777617604 | 12.22° C | 79% | 1025.9 hPa | 0 mm | - | - | - |
| 1777617004 | 12.22° C | 78% | 1025.7 hPa | 0 mm | - | - | - |
* Rain latest hour (hover to see other rain measurements)
** Current wind speed in m/s (hover to see current wind gust speed)